TISAT 1

Last updated on Sun Dec 14 2025 00:03:49 GMT+0000 (Coordinated Universal Time)

1 36799U 10035E 25347.30280049 .00030169 00000+0 12636-2 0 9998 2 36799 98.0593 273.7337 0003411 132.9184 227.2338 15.23488929839322
UTC large
Height (km)
Speed (km/s)
/
Latitude / Longitude
Inclination (degrees)
Orbital Period (minutes)
Azimuth
Elevation
Range (km)
Doppler Factor

Next 0 passes for location: London (51.5072 / 0.1276)

Sorry there are no passes over London.